Weather in Dolginovo

Russia / Smolensk Oblast     54°50′28″N   33°03′06″E
temp.,
°C
wind,
m/s
gust,
m/s
humid.,
%
clouds,
%
prec.,
mm/h
press.,
hPa
HPBL,
m
8 march, mon
mon800:00−6w5138579 0.0 1000692
03:00−6w5128974 0.0 1000689
06:00−7w5119199 0.1 1001602
09:00−6nw5989100 0.3 1003926
12:00−5nw4680100 0.1 1006837
15:00−5nw457999 0.1 1007955
18:00−6nw3792100 0.2 1009514
21:00−9nnw399398 0.3 1012383
9 march, tue
tue900:00−12nnw369681 0.0 1014158
03:00−13nnw249882 0.1 101697
06:00−14nnw249892 0.0 1017101
09:00−13nnw369276 0.0 1019280
12:00−9nnw35786 0.0 1019729
15:00−7nw357447 0.0 10201080
18:00−9nw2387100 0.1 102195
21:00−12nw1190100 0.1 102321
10 march, wed
wed1000:00−14sw119252 0.0 102420
03:00−12ssw239473 0.0 102381
06:00−11s2595100 0.8 1023238
09:00−9s1294100 1.7 1024160
12:00−9e4792100 1.1 1024346
15:00−9e4791100 1.7 1025419
18:00−10e4792100 0.4 1025487
21:00−13e489494 0.5 1027368
11 march, thu
thu1100:00−15ese389191 0.1 1029300
03:00−17ese499084 0.1 1029213
06:00−19ese488998 0.0 1030201
09:00−18se479093 0.0 1030225
12:00−13se479061 0.0 1028297
15:00−9se478975 0.0 1027440
18:00−10se4992100 0.0 1026381
21:00−12sse41195100 0.1 1025318
12 march, fri
fri1200:00−14se51296100 0.0 1023296
03:00−13se61494100 0.1 1020391
06:00−11sse71786100 0.0 1016563
09:00−6sse101891100 0.3 1012959
12:00−4sse101892100 2.2 10071229
15:00−3s101793100 4.7 10041127
18:00−1s81595100 2.0 1002825
21:00+1ssw4998100 2.8 1001363